• In Belarus
  • List of Countries
  • For 7 days
  • Water Temperature
  • Satellite Maps
  • Weather Map
  • Weather Widgets
  • user-avatar
    Login

    Hourly Weather Mochudi

    Today, 19 June, Tuesday

    Time Temperature Precipitation Wind Pressure Humidity
    00:00 +14°C° 0 mm 0 mps 682 mmHg 42%
    01:00 +14°C° 0 mm 0 mps 682 mmHg 43%
    02:00 +13°C° 0 mm 0 mps 682 mmHg 44%
    03:00 +13°C° 0 mm 0 mps 681 mmHg 45%
    04:00 +12°C° 0 mm 0 mps 681 mmHg 46%
    05:00 +12°C° 0 mm 0 mps 681 mmHg 47%
    06:00 +12°C° 0 mm 0 mps 682 mmHg 45%
    07:00 +13°C° 0 mm 0 mps 682 mmHg 43%
    08:00 +13°C° 0 mm 0 mps 682 mmHg 42%
    09:00 +19°C° 0 mm 1 mps 683 mmHg 35%
    10:00 +22°C° 0 mm 1 mps 683 mmHg 27%
    11:00 +25°C° 0 mm 1 mps 684 mmHg 20%
    12:00 +26°C° 0 mm 1 mps 684 mmHg 17%
    13:00 +28°C° 0 mm 1 mps 684 mmHg 15%
    14:00 +29°C° 0 mm 1 mps 683 mmHg 12%
    15:00 +28°C° 0 mm 1 mps 683 mmHg 13%
    16:00 +25°C° 0 mm 0 mps 683 mmHg 14%
    17:00 +24°C° 0 mm 0 mps 682 mmHg 14%
    18:00 +22°C° 0 mm 0 mps 682 mmHg 16%
    19:00 +20°C° 0 mm 0 mps 682 mmHg 17%
    20:00 +20°C° 0 mm 1 mps 682 mmHg 18%
    21:00 +20°C° 0 mm 1 mps 682 mmHg 19%
    22:00 +19°C° 0 mm 1 mps 682 mmHg 20%
    23:00 +18°C° 0 mm 1 mps 682 mmHg 20%

    Tomorrow, 20 June, Wednesday

    Time Temperature Precipitation Wind Pressure Humidity
    00:00 +18°C° 0 mm 1 mps 682 mmHg 21%
    01:00 +16°C° 0 mm 1 mps 682 mmHg 21%
    02:00 +16°C° 0 mm 1 mps 682 mmHg 21%
    03:00 +14°C° 0 mm 0 mps 682 mmHg 22%
    04:00 +14°C° 0 mm 0 mps 682 mmHg 22%
    05:00 +13°C° 0 mm 0 mps 682 mmHg 23%
    06:00 +14°C° 0 mm 0 mps 682 mmHg 23%
    07:00 +14°C° 0 mm 0 mps 683 mmHg 23%
    08:00 +15°C° 0 mm 0 mps 683 mmHg 22%
    09:00 +18°C° 0 mm 0 mps 684 mmHg 19%
    10:00 +23°C° 0 mm 1 mps 685 mmHg 16%
    11:00 +26°C° 0 mm 1 mps 686 mmHg 13%
    12:00 +27°C° 0 mm 1 mps 686 mmHg 12%
    13:00 +28°C° 0 mm 2 mps 685 mmHg 11%
    14:00 +29°C° 0 mm 2 mps 685 mmHg 10%
    15:00 +28°C° 0 mm 2 mps 684 mmHg 11%
    16:00 +27°C° 0 mm 2 mps 684 mmHg 11%
    17:00 +26°C° 0 mm 1 mps 684 mmHg 12%
    18:00 +24°C° 0 mm 1 mps 684 mmHg 13%
    19:00 +22°C° 0 mm 1 mps 684 mmHg 14%
    20:00 +20°C° 0 mm 1 mps 684 mmHg 16%
    21:00 +20°C° 0 mm 1 mps 684 mmHg 17%
    22:00 +19°C° 0 mm 1 mps 685 mmHg 19%
    23:00 +17°C° 0 mm 2 mps 685 mmHg 20%

    Day after tomorrow, 21 June, Thursday

    Time Temperature Precipitation Wind Pressure Humidity
    00:00 +16°C° 0 mm 2 mps 685 mmHg 25%
    01:00 +15°C° 0 mm 2 mps 685 mmHg 29%
    02:00 +15°C° 0 mm 2 mps 685 mmHg 34%
    03:00 +14°C° 0 mm 2 mps 685 mmHg 42%
    04:00 +13°C° 0 mm 2 mps 685 mmHg 51%
    05:00 +13°C° 0 mm 1 mps 685 mmHg 59%
    06:00 +13°C° 0 mm 2 mps 685 mmHg 62%
    07:00 +13°C° 0 mm 2 mps 686 mmHg 66%
    08:00 +13°C° 0 mm 2 mps 687 mmHg 70%
    09:00 +16°C° 0 mm 2 mps 687 mmHg 63%
    10:00 +19°C° 0 mm 3 mps 688 mmHg 55%
    11:00 +21°C° 0 mm 4 mps 688 mmHg 48%
    12:00 +22°C° 0 mm 4 mps 688 mmHg 43%
    13:00 +25°C° 0 mm 4 mps 687 mmHg 37%
    14:00 +26°C° 0 mm 3 mps 687 mmHg 31%
    15:00 +25°C° 0 mm 3 mps 686 mmHg 32%
    16:00 +25°C° 0 mm 3 mps 686 mmHg 33%
    17:00 +24°C° 0 mm 2 mps 686 mmHg 33%
    18:00 +21°C° 0 mm 2 mps 686 mmHg 39%
    19:00 +20°C° 0 mm 2 mps 686 mmHg 44%
    20:00 +18°C° 0 mm 2 mps 686 mmHg 49%
    21:00 +17°C° 0 mm 2 mps 686 mmHg 53%
    22:00 +16°C° 0 mm 1 mps 686 mmHg 57%
    23:00 +16°C° 0 mm 1 mps 686 mmHg 61%

    22 June, Friday

    Time Temperature Precipitation Wind Pressure Humidity
    00:00 +15°C° 0 mm 1 mps 686 mmHg 64%
    01:00 +15°C° 0 mm 1 mps 686 mmHg 67%
    02:00 +14°C° 0 mm 1 mps 685 mmHg 70%
    03:00 +14°C° 0 mm 1 mps 685 mmHg 73%
    04:00 +13°C° 0 mm 1 mps 685 mmHg 75%
    05:00 +13°C° 0 mm 1 mps 685 mmHg 78%
    06:00 +13°C° 0 mm 1 mps 685 mmHg 76%
    07:00 +14°C° 0 mm 1 mps 686 mmHg 75%
    08:00 +14°C° 0 mm 1 mps 686 mmHg 74%
    09:00 +18°C° 0 mm 1 mps 687 mmHg 64%
    10:00 +19°C° 0 mm 2 mps 687 mmHg 54%
    11:00 +23°C° 0 mm 2 mps 688 mmHg 44%
    12:00 +24°C° 0 mm 2 mps 687 mmHg 38%
    13:00 +25°C° 0 mm 2 mps 686 mmHg 32%
    14:00 +26°C° 0 mm 2 mps 686 mmHg 25%
    15:00 +26°C° 0 mm 2 mps 685 mmHg 26%
    16:00 +25°C° 0 mm 1 mps 685 mmHg 26%
    17:00 +25°C° 0 mm 1 mps 685 mmHg 26%
    18:00 +23°C° 0 mm 1 mps 685 mmHg 29%
    19:00 +21°C° 0 mm 1 mps 685 mmHg 32%
    20:00 +17°C° 0 mm 0 mps 685 mmHg 36%
    21:00 +17°C° 0 mm 0 mps 685 mmHg 37%
    22:00 +16°C° 0 mm 0 mps 685 mmHg 38%
    23:00 +16°C° 0 mm 0 mps 685 mmHg 40%

    23 June, Saturday

    Time Temperature Precipitation Wind Pressure Humidity
    00:00 +16°C° 0 mm 1 mps 685 mmHg 41%
    01:00 +16°C° 0 mm 1 mps 684 mmHg 42%
    02:00 +15°C° 0 mm 1 mps 684 mmHg 43%
    03:00 +15°C° 0 mm 1 mps 684 mmHg 44%
    04:00 +14°C° 0 mm 1 mps 684 mmHg 45%
    05:00 +13°C° 0 mm 0 mps 684 mmHg 47%
    06:00 +14°C° 0 mm 1 mps 684 mmHg 46%
    07:00 +15°C° 0 mm 1 mps 685 mmHg 44%
    08:00 +15°C° 0 mm 1 mps 685 mmHg 43%
    09:00 +19°C° 0 mm 1 mps 686 mmHg 37%
    10:00 +20°C° 0 mm 2 mps 686 mmHg 32%
    11:00 +24°C° 0 mm 2 mps 687 mmHg 26%
    12:00 +25°C° 0 mm 2 mps 686 mmHg 23%
    13:00 +26°C° 0 mm 2 mps 685 mmHg 21%
    14:00 +27°C° 0 mm 1 mps 685 mmHg 18%
    15:00 +26°C° 0 mm 1 mps 685 mmHg 19%
    16:00 +25°C° 0 mm 1 mps 684 mmHg 20%
    17:00 +25°C° 0 mm 1 mps 684 mmHg 21%
    18:00 +23°C° 0 mm 1 mps 684 mmHg 23%
    19:00 +21°C° 0 mm 1 mps 684 mmHg 26%
    20:00 +19°C° 0 mm 1 mps 684 mmHg 28%
    21:00 +19°C° 0 mm 1 mps 684 mmHg 30%
    22:00 +18°C° 0 mm 1 mps 684 mmHg 31%
    23:00 +18°C° 0 mm 1 mps 684 mmHg 33%

    24 June, Sunday

    Time Temperature Precipitation Wind Pressure Humidity
    00:00 +16°C° 0 mm 1 mps 684 mmHg 35%
    01:00 +16°C° 0 mm 1 mps 684 mmHg 38%
    02:00 +15°C° 0 mm 1 mps 683 mmHg 40%
    03:00 +15°C° 0 mm 1 mps 683 mmHg 43%
    04:00 +13°C° 0 mm 0 mps 683 mmHg 45%
    05:00 +13°C° 0 mm 0 mps 683 mmHg 47%
    06:00 +13°C° 0 mm 0 mps 683 mmHg 46%
    07:00 +13°C° 0 mm 0 mps 684 mmHg 46%
    08:00 +14°C° 0 mm 0 mps 684 mmHg 45%
    09:00 +17°C° 0 mm 0 mps 685 mmHg 39%
    10:00 +19°C° 0 mm 0 mps 686 mmHg 33%
    11:00 +22°C° 0 mm 0 mps 686 mmHg 26%
    12:00 +25°C° 0 mm 1 mps 686 mmHg 24%
    13:00 +26°C° 0 mm 1 mps 685 mmHg 21%
    14:00 +27°C° 0 mm 1 mps 685 mmHg 18%
    15:00 +27°C° 0 mm 1 mps 685 mmHg 18%
    16:00 +26°C° 0 mm 1 mps 684 mmHg 18%
    17:00 +25°C° 0 mm 1 mps 684 mmHg 18%
    18:00 +23°C° 0 mm 1 mps 684 mmHg 20%
    19:00 +21°C° 0 mm 1 mps 684 mmHg 22%
    20:00 +18°C° 0 mm 0 mps 684 mmHg 24%
    21:00 +17°C° 0 mm 0 mps 684 mmHg 25%
    22:00 +17°C° 0 mm 0 mps 684 mmHg 26%
    23:00 +16°C° 0 mm 0 mps 684 mmHg 27%
    Show more